Location: Centerville
(32.8776°N, 96.6203°W)
Time: 14:44:00
(UTC+00:00)

Cosmos 1328 Rocket - Pass Details

Date: 17 June 2021
Orbit: 602 x 626 km, 82.5° (Epoch: 26 July)

Event Time Altitude Azimuth Distance (km) Brightness Sun altitude
Rises 09:46:36 0° 353° (N) 2,872 7.5 -16.4°
Reaches altitude 10° 09:48:49 10° 354° (N) 1,967 6.6 -16.1°
Maximum altitude 09:53:11 88° 81° (E) 618 3.5 -15.4°
Drops below altitude 10° 09:57:33 10° 174° (S) 1,969 5.8 -14.7°
Enters shadow 09:57:56 - 174° (S) 2,123 6.0 -14.6°
